Home   Weather   Santiago   Past weeks

Flag for Chile Past Weather in Santiago, Chile — Yesterday and Last 2 Weeks

Now
64 °F

Clear.


Feels Like: 64 °F
Forecast: 57 / 87 °F
Wind: 3 mph from Southwest

Location: Pudahuel

Current Time: Dec 3, 2016 at 10:53:28 am

Latest Report: Dec 3, 2016 at 10:00 am


Visibility: 4 mi

Pressure: 29.98 "Hg (28.02 "Hg at 576m altitude)

Humidity: 73%

Dew Point: 55 °F

Location of SantiagoLocation

Past Weather in Santiago — Graph

°F

Santiago Temperature Yesterday

Maximum temperature yesterday: 86 °F (at 2:00 pm)
Minimum temperature yesterday: 57 °F (at 6:00 am)
Average temperature yesterday: 71 °F

High & Low Weather Summary for the Past Weeks

 TemperatureHumidityPressure
High93 °F (Nov 29, 4:00 pm)100% (Dec 3, 7:00 am)30.12 "Hg (Dec 3, 7:00 am)
Low50 °F (Nov 26, 7:00 am)15% (Nov 18, 1:00 pm)29.80 "Hg (Nov 29, 3:00 pm)
Average66 °F57%29.96 "Hg
* Reported Nov 18 9:00 am — Dec 3 9:00 am, Santiago, Weather by CustomWeather, © 2016

Note: Actual official high and low records may vary slightly from our data, if they occured in-between our weather recording intervals... More about our weather records

Advertising

Santiago Weather History for the Previous 24 Hours

Scroll right to see more
 ConditionsComfort  
Time TempWeatherWind HumidityBarometerVisibility
9:00 am
Sat, Dec 3
61 °FScattered clouds.1 mph77%29.98 "Hg2 mi
8:00 am57 °FFog.3 mph88%29.98 "Hg2 mi
7:00 am55 °FFog.2 mph100%29.98 "Hg1 mi
6:00 am55 °FFog.6 mph94%29.98 "Hg1 mi
5:00 am55 °FFog.7 mph94%29.98 "Hg2 mi
4:00 am55 °FFog.8 mph94%29.98 "Hg3 mi
3:00 am57 °FClear.5 mph88%29.98 "Hg5 mi
2:00 am57 °FClear.8 mph88%29.98 "Hg10 mi
1:00 am59 °FClear.9 mph82%30.01 "Hg10 mi
12:00 am61 °FClear.13 mph77%30.01 "Hg10 mi
11:00 pm
Fri, Dec 2
64 °FClear.13 mph68%29.98 "Hg10 mi
10:00 pm68 °FClear.16 mph60%29.98 "Hg10 mi
9:00 pm73 °FClear.13 mph53%29.95 "Hg10 mi
8:00 pm75 °FSunny.15 mph50%29.95 "Hg10 mi
7:00 pm81 °FSunny.16 mph45%29.92 "Hg10 mi
6:00 pm84 °FSunny.20 mph31%29.92 "Hg10 mi
5:00 pm84 °FSunny.21 mph35%29.95 "Hg10 mi
4:00 pm86 °FSunny.18 mph31%29.95 "Hg10 mi
3:00 pm84 °FSunny.17 mph35%29.95 "Hg10 mi
2:00 pm86 °FSunny.16 mph33%29.95 "Hg10 mi
1:00 pm82 °FPassing clouds.13 mph40%29.95 "HgN/A
12:00 pm81 °FClear.8 mph42%29.98 "Hg5 mi
11:00 am75 °FClear.6 mph47%29.98 "Hg5 mi
10:00 am72 °FClear.2 mph53%29.98 "Hg5 mi
Weather by CustomWeather, © 2016

See weather overviewHow to use our weather pages